Theta_e
343 342 342 346 344 345 343 346 345 348 352 353 353 351 349 349 349 352 352 352 352 352 352 352 352 351 351 351 351 350 349 349 349 348 347 346 347 347 346 346 346 346 346 346 345 345 346 346 347 349 348 347 347 346 346 346 346 347 347 346 346 346 346 347 346 346 345 346 347 347 347 348 347 348 348 347 346 347 346 347 347 345 345 346 348
342 344 343 341 344 345 347 346 348 349 351 352 351 349 349 350 351 352 352 352 351 351 351 351 351 351 351 351 350 349 349 349 348 348 347 347 346 346 346 345 345 345 344 344 344 343 344 345 346 347 347 347 346 345 346 346 346 345 345 345 346 346 346 346 346 345 345 344 343 343 343 344 345 345 347 347 345 345 343 345 346 344 344 347 348
344 345 341 344 346 347 346 348 350 350 353 352 351 350 350 350 350 351 351 351 351 350 351 351 350 351 351 351 350 349 349 348 347 348 348 347 346 345 345 345 344 344 344 344 343 343 343 344 344 344 345 344 344 344 344 345 345 345 345 345 345 346 346 346 346 345 344 343 342 341 340 342 343 343 344 345 345 345 342 343 344 345 344 346 346
343 344 341 342 345 346 347 347 349 351 352 352 351 350 349 349 349 350 351 351 350 350 351 351 350 351 351 350 350 350 349 349 348 348 348 347 345 345 344 344 344 343 343 343 342 341 342 342 342 342 342 342 343 342 342 343 344 344 344 344 345 345 345 345 344 344 344 342 342 340 339 335 337 341 342 342 343 344 342 341 342 345 346 346 345
343 344 342 341 343 347 350 351 351 352 352 352 351 350 350 349 349 349 350 348 348 348 351 351 350 350 350 350 350 350 349 349 349 348 348 347 346 345 345 344 343 342 341 342 341 340 340 340 340 340 340 340 340 341 342 343 344 344 343 344 344 344 344 344 343 342 341 341 340 338 335 335 334 339 340 340 340 339 341 341 341 343 343 345 346
344 343 342 340 341 345 348 350 350 352 352 352 351 350 349 349 349 348 348 348 348 347 348 348 350 350 350 350 350 349 349 348 348 348 347 347 346 345 344 344 344 342 341 340 339 339 339 339 339 339 339 339 339 340 342 343 343 343 343 343 344 344 343 342 341 340 339 338 337 333 333 334 334 334 339 339 339 336 337 339 340 341 342 343 344
345 343 342 340 341 344 346 350 351 352 352 352 351 350 349 349 348 348 348 347 347 347 347 347 348 349 349 349 349 349 349 349 348 347 347 346 345 345 344 343 343 341 340 339 338 337 338 340 339 339 339 338 338 340 341 342 343 342 343 343 343 343 343 341 340 339 337 334 331 330 330 332 333 332 338 338 338 336 336 338 339 340 341 342 343
347 345 341 340 343 345 345 350 351 351 352 351 350 350 349 349 349 348 348 347 347 347 347 347 347 348 348 348 348 348 348 349 348 347 347 346 345 343 343 342 342 341 339 339 337 336 336 338 338 338 338 337 338 339 340 341 342 342 341 342 343 342 341 340 339 337 336 331 330 329 329 329 330 332 337 337 338 337 336 336 336 337 338 339 338
346 345 343 341 343 343 345 347 351 351 351 351 350 350 349 348 349 348 347 347 347 347 347 347 347 347 347 348 348 348 348 348 347 347 346 345 344 343 342 342 341 341 338 337 336 335 335 337 338 337 337 337 338 339 339 340 341 341 341 341 341 340 338 337 335 333 331 329 329 330 330 329 329 330 335 336 336 336 336 334 334 335 335 334 335
347 347 344 342 343 341 343 346 351 351 351 351 350 350 350 348 348 347 347 346 346 346 346 346 347 347 347 347 348 348 347 347 347 346 345 344 343 342 341 341 340 339 338 336 333 333 335 335 335 336 337 338 338 338 339 340 340 341 341 341 339 338 336 334 332 330 327 326 326 327 334 335 330 330 332 335 336 335 333 333 333 332 332 333 333
346 347 345 342 342 342 346 349 349 350 351 350 350 350 350 349 348 347 346 346 346 346 346 346 347 347 347 347 347 348 347 346 346 345 344 343 342 342 341 340 338 337 335 333 331 331 335 335 334 335 337 337 337 337 338 339 340 341 340 339 338 337 335 332 329 325 326 326 326 325 330 335 330 329 334 334 335 334 333 333 332 333 333 334 334
345 346 345 343 343 341 347 348 347 348 350 350 350 350 350 349 348 347 346 346 346 346 346 347 347 347 347 347 347 347 347 346 345 344 344 343 342 341 340 339 337 336 334 331 329 330 332 334 334 335 336 335 336 336 337 339 340 340 339 338 337 334 332 330 326 324 324 324 325 326 325 325 329 331 333 333 334 334 333 333 333 332 333 333 334
344 345 344 344 342 339 344 347 347 348 349 349 348 350 349 348 348 347 347 346 346 346 346 346 346 346 346 347 347 346 345 345 344 344 343 342 341 340 339 339 338 335 332 330 329 329 331 332 333 334 335 335 335 336 336 338 339 338 337 336 334 333 330 328 323 323 323 323 324 324 324 325 328 333 332 333 334 333 333 333 333 333 333 333 333
342 344 345 345 343 343 339 342 344 348 349 347 348 347 349 348 347 347 347 348 347 346 345 346 346 346 346 346 346 345 345 345 344 343 342 341 341 340 339 338 336 335 331 328 327 328 329 331 333 334 334 333 334 334 335 336 337 336 335 334 332 330 326 325 325 321 322 322 324 324 324 327 328 333 332 332 333 333 332 332 332 332 332 332 332
343 343 344 344 344 344 340 338 342 343 346 347 347 349 347 348 347 347 347 347 346 346 346 345 345 346 345 346 345 345 345 344 344 342 342 341 341 340 339 338 336 335 331 327 325 326 328 330 332 333 332 332 332 332 334 334 334 334 332 330 329 326 324 319 320 319 320 322 322 324 323 326 333 332 332 332 332 333 332 332 332 331 331 331 332
339 341 342 342 342 342 342 340 338 337 341 343 345 346 347 348 348 348 348 346 346 346 346 345 346 346 345 344 345 344 344 344 343 343 342 341 340 340 339 338 336 334 331 326 324 324 326 329 330 329 329 331 331 330 331 332 332 331 329 327 325 323 321 319 316 317 318 320 321 322 323 326 331 332 332 332 332 331 330 331 331 331 331 331 330
326 330 334 333 337 340 342 341 338 333 335 337 338 340 343 345 347 347 347 347 346 347 346 346 346 345 345 343 344 344 343 343 343 343 341 341 340 339 338 337 336 334 331 327 324 324 326 327 327 326 327 327 328 328 328 329 329 327 326 323 321 319 317 315 313 313 316 318 319 321 323 323 330 332 332 331 332 331 331 331 331 331 330 330 329
319 321 322 325 324 326 329 339 339 340 341 336 332 337 340 343 341 343 344 344 345 346 346 346 345 345 344 343 341 342 343 343 343 342 341 340 339 338 338 336 335 332 330 329 326 324 324 325 325 324 323 323 324 324 325 326 326 323 321 319 316 314 312 310 306 308 312 317 316 320 323 333 332 331 331 331 332 331 331 330 330 330 330 329 329
317 318 318 319 318 322 323 327 335 340 339 338 337 337 334 337 340 339 340 342 344 343 343 342 341 342 341 339 338 337 336 337 338 340 340 338 335 334 337 337 335 332 330 329 327 325 323 322 322 321 321 321 322 322 322 323 323 321 320 317 313 311 307 301 298 302 307 311 313 317 322 331 331 332 331 332 332 330 330 330 329 329 330 329 328
315 316 316 317 317 320 321 324 325 326 336 339 338 337 332 331 335 336 336 337 338 340 339 337 335 334 333 332 330 331 330 333 329 332 333 337 334 332 335 335 335 332 330 329 328 326 324 322 321 320 320 320 320 321 320 321 321 319 317 315 312 307 298 295 295 297 300 306 312 314 323 326 332 331 331 333 335 334 334 333 332 329 329 329 329
313 314 314 314 315 317 318 321 320 323 325 336 339 339 336 328 331 330 332 333 333 334 334 328 324 323 325 322 325 334 334 332 331 332 327 331 326 327 332 335 335 333 331 329 327 326 325 324 322 321 320 318 316 316 318 319 318 316 314 311 308 300 298 296 296 299 300 303 308 313 323 324 326 327 327 333 334 335 335 335 336 331 330 330 329
310 311 312 313 314 314 315 318 319 321 323 327 339 339 337 331 338 334 332 328 327 325 329 333 331 330 322 327 334 332 334 334 332 331 329 328 327 325 329 334 335 334 333 329 327 326 326 325 324 322 321 319 314 303 304 310 312 312 309 307 300 299 298 297 296 298 301 303 309 317 321 324 327 328 328 328 329 329 330 332 335 335 334 335 334
309 309 310 311 312 314 315 316 316 318 321 321 330 339 337 336 338 336 331 328 330 330 333 333 334 332 331 333 332 333 334 333 332 330 328 324 327 324 328 331 333 331 332 332 329 328 328 328 326 324 321 316 307 304 303 301 301 305 303 299 298 299 299 298 297 297 300 305 308 321 322 323 326 328 329 328 328 327 327 328 329 329 331 333 334
304 306 308 310 311 312 313 314 315 317 320 319 323 334 338 337 337 337 336 335 333 331 330 333 334 334 333 334 334 333 334 333 329 324 326 328 326 323 326 327 328 327 327 327 327 327 325 324 322 319 314 310 307 306 305 304 303 301 299 298 298 298 299 298 297 297 298 305 310 320 322 324 325 326 327 326 325 325 327 328 328 328 328 328 329
302 303 304 306 309 311 311 313 314 317 318 319 320 326 336 338 337 336 336 335 333 333 333 331 332 332 333 333 335 333 333 332 330 329 330 329 329 329 329 328 328 326 322 320 319 317 315 312 311 310 308 308 308 307 307 306 305 303 302 300 300 300 299 299 299 298 298 302 311 319 321 323 324 325 326 327 326 324 325 326 325 325 326 327 327
301 302 303 305 306 308 310 312 314 317 319 319 319 322 327 336 336 336 335 335 334 334 334 333 332 331 333 332 333 333 331 330 330 329 328 330 329 329 328 327 325 324 322 320 316 316 315 312 311 310 308 308 307 307 306 306 306 304 303 303 303 302 302 301 300 300 300 303 312 319 319 320 324 326 327 327 327 325 325 326 326 325 325 325 327
302 304 305 304 305 306 309 311 314 318 320 320 322 326 328 334 337 336 335 334 334 333 333 333 333 333 332 331 331 330 330 329 329 327 327 327 326 328 326 326 326 324 322 321 319 318 318 314 312 310 309 309 308 307 307 307 306 306 306 305 304 303 302 301 300 300 300 303 310 316 317 319 322 325 325 326 326 326 325 326 327 327 326 326 326
304 306 305 303 304 306 307 311 316 317 321 320 328 328 329 329 329 330 331 328 328 328 328 328 329 330 330 330 328 330 330 329 328 328 328 327 326 325 327 326 326 326 324 323 322 321 320 316 313 311 311 310 310 309 310 309 308 307 307 306 304 302 301 299 299 299 299 301 303 310 314 316 318 320 322 324 325 325 325 325 326 327 327 326 325
305 306 305 305 308 311 311 311 313 317 321 326 326 326 326 325 324 324 324 322 324 324 325 325 325 326 327 328 328 328 328 327 325 324 323 322 322 322 322 321 322 322 324 322 324 322 320 318 316 313 312 312 311 310 310 309 308 307 307 305 303 301 299 299 298 298 298 298 298 302 309 310 313 316 318 320 321 323 324 325 326 325 325 325 324
306 306 307 309 311 313 313 311 315 322 326 325 324 322 321 320 319 319 319 318 319 320 320 320 321 322 322 323 324 325 324 323 322 322 321 320 319 319 319 319 319 320 320 319 320 320 319 319 317 315 314 313 312 309 309 309 309 308 306 303 301 300 300 299 299 298 298 296 295 295 304 306 307 311 314 316 318 320 322 324 325 324 325 324 324
306 306 307 309 311 312 313 314 317 321 322 320 319 317 315 315 314 315 315 315 315 316 317 317 317 319 320 320 320 320 321 321 320 319 319 317 317 317 317 317 317 318 318 317 318 317 317 316 315 314 312 310 309 309 309 308 308 308 305 303 301 301 300 300 300 299 297 296 295 294 295 301 304 305 308 312 314 316 318 321 324 323 323 323 324
304 305 306 309 311 311 312 313 317 317 317 316 314 314 313 312 311 312 313 313 313 313 313 314 314 316 319 319 319 318 317 318 318 317 315 315 314 314 314 313 313 314 315 315 314 313 312 311 311 310 309 306 305 306 307 307 306 306 305 303 302 300 300 300 299 299 298 296 295 294 293 294 299 301 303 307 310 312 313 315 318 320 321 321 323
305 306 306 308 309 310 310 311 315 315 314 313 312 311 311 311 310 311 311 311 312 312 311 311 313 314 314 315 316 316 316 315 315 314 313 313 312 311 310 310 310 310 310 309 309 309 308 307 305 306 304 304 304 304 306 306 305 305 304 302 301 300 300 299 298 297 297 296 295 294 293 293 291 296 298 301 305 308 310 311 313 316 317 318 319
305 306 307 306 308 310 310 311 312 312 311 311 311 310 309 308 308 308 309 311 310 308 308 308 309 310 310 311 310 310 311 312 312 311 311 310 309 309 308 307 307 305 304 303 302 302 302 302 302 302 302 301 302 303 305 305 305 304 303 301 300 299 298 298 297 296 296 294 294 293 292 291 291 290 290 295 298 303 306 308 308 311 313 314 315
304 306 306 306 307 307 309 308 309 308 309 309 309 307 307 306 306 306 305 306 306 306 306 307 307 307 307 307 307 307 307 307 308 307 307 307 306 306 306 305 304 303 301 301 300 300 300 299 300 299 299 300 300 302 303 304 303 302 302 300 298 297 297 296 295 294 293 292 292 291 291 291 290 290 289 288 292 296 302 304 306 308 310 311 312
305 304 304 306 306 306 307 307 307 306 305 306 306 304 304 303 304 303 303 302 302 303 304 304 304 305 305 304 305 304 304 304 304 305 304 304 303 303 303 303 304 304 299 298 297 296 295 294 294 297 298 297 300 300 301 301 300 300 299 298 297 296 294 292 291 290 289 289 289 290 290 289 289 289 291 287 287 290 297 300 302 304 307 308 310
305 303 303 305 305 305 306 305 304 304 303 303 302 301 302 300 299 299 299 301 301 300 300 301 302 302 302 302 302 302 302 301 301 302 302 301 301 300 300 300 300 298 297 296 294 294 293 292 291 291 294 295 297 297 297 297 297 297 297 296 295 293 291 289 288 287 288 286 286 287 288 288 289 290 287 287 286 286 291 296 297 299 301 304 306
304 304 304 305 304 304 304 303 303 303 302 301 301 299 298 298 297 297 296 296 296 297 298 299 298 298 299 298 299 299 298 298 298 298 298 298 298 298 297 297 297 296 294 293 292 291 290 290 288 288 290 293 294 294 294 294 294 294 293 292 292 291 290 288 287 287 286 285 285 285 285 286 286 285 285 285 285 286 285 289 293 293 294 300 303
302 304 304 304 304 303 302 302 301 301 300 299 299 298 297 296 296 295 295 293 293 294 295 295 295 295 295 296 296 296 296 295 295 296 295 295 295 294 294 294 293 293 291 291 290 289 288 288 289 288 288 289 291 292 292 292 291 291 290 289 290 290 289 289 287 285 284 284 286 287 286 284 284 284 284 284 284 285 285 284 285 284 286 296 300
301 303 303 303 302 302 301 301 300 300 299 298 297 297 298 297 294 295 293 292 292 292 292 293 293 293 293 294 294 294 294 294 293 293 293 292 292 292 291 292 291 291 290 288 287 286 286 287 287 289 289 288 287 287 289 291 289 289 289 288 287 287 287 287 286 286 284 283 283 284 283 284 283 283 283 283 283 284 284 284 286 284 285 289 295
302 302 302 302 302 301 300 299 299 299 299 298 297 296 295 295 295 295 292 292 291 291 291 291 291 291 291 292 292 292 292 293 293 292 291 291 290 290 290 290 290 289 288 286 286 286 286 285 285 287 288 288 285 284 284 287 290 288 289 288 288 287 287 285 284 284 284 282 282 282 283 283 283 282 282 282 282 283 283 283 283 284 284 284 286
301 302 302 302 302 301 300 299 299 299 300 300 298 296 295 295 294 291 291 291 290 289 288 289 290 290 290 290 291 290 291 291 291 291 291 290 289 289 289 288 287 286 286 286 285 286 284 284 285 285 284 284 282 283 284 287 289 286 286 286 287 287 287 285 284 283 282 282 282 282 282 282 282 282 282 282 282 282 282 282 283 283 284 284 284
300 301 302 302 301 301 300 300 300 299 299 298 297 294 293 293 292 290 289 288 289 289 288 289 289 289 289 289 290 290 289 288 289 290 289 288 287 286 286 286 285 286 285 284 284 283 283 283 283 284 283 283 283 284 283 284 286 284 284 286 284 283 287 281 282 283 282 281 282 282 282 281 281 281 281 281 281 281 282 282 282 282 283 283 284
300 300 300 301 301 301 300 300 298 297 296 295 293 292 291 291 290 289 289 288 287 288 288 288 287 288 287 288 288 288 288 287 287 287 286 286 286 285 285 285 284 284 284 284 283 283 283 282 282 283 283 281 280 282 283 283 282 286 287 284 283 281 278 277 278 280 280 280 281 280 281 280 280 281 280 280 280 280 281 281 281 282 282 283 283
300 299 298 299 299 299 299 297 296 295 294 293 292 291 290 288 288 288 288 287 287 287 286 285 286 286 286 285 285 286 286 285 285 285 285 285 285 284 284 284 284 284 284 283 283 282 282 282 282 282 281 281 280 279 282 282 282 282 283 279 278 277 278 276 276 278 278 278 279 279 281 279 279 280 279 279 280 280 281 281 281 281 281 282 282
300 298 296 298 297 296 296 296 295 294 292 291 291 290 289 288 287 287 286 286 284 285 284 284 283 283 283 282 284 284 284 284 284 284 285 285 284 284 284 284 283 283 283 283 282 282 282 282 282 281 281 281 282 280 280 282 282 282 281 279 279 278 277 276 275 276 276 277 277 278 278 279 279 279 279 280 280 280 281 280 280 280 281 281 281
300 298 296 296 296 295 295 295 294 293 292 291 291 291 290 290 290 289 288 287 285 283 283 283 283 282 283 283 283 283 283 283 283 283 283 284 283 283 283 283 283 283 283 283 282 282 282 282 282 282 282 284 281 280 280 280 280 282 281 280 280 278 277 275 276 275 273 274 276 277 277 279 278 278 279 279 279 279 279 280 280 280 280 281 281
299 296 295 295 295 294 293 293 292 292 291 291 290 291 290 290 288 288 287 286 285 283 283 282 283 283 282 282 282 282 282 283 283 283 283 283 283 283 283 283 283 282 283 282 282 282 282 283 282 282 282 281 280 280 278 277 278 279 281 280 280 279 278 278 275 276 275 274 274 276 276 279 278 276 277 278 278 278 278 279 279 279 279 280 280
297 296 294 294 294 294 293 292 291 290 290 290 289 288 289 288 287 286 284 284 284 283 283 284 282 282 282 281 282 281 282 282 282 283 282 283 283 282 282 282 282 282 283 282 281 281 281 281 281 281 281 280 280 279 279 277 278 278 278 278 277 277 277 277 276 276 276 274 273 274 275 276 276 276 277 277 277 278 278 278 280 279 280 279 279
296 295 294 293 293 293 292 292 291 290 289 288 288 288 288 288 287 285 284 283 283 283 282 281 281 281 281 281 281 281 281 282 282 282 282 282 282 282 282 282 282 282 282 281 281 280 280 280 280 280 280 280 279 279 278 277 277 277 277 277 277 276 275 276 276 274 274 274 274 274 274 274 274 276 277 277 278 277 277 278 277 277 278 278 278
295 294 293 292 292 292 291 290 290 290 289 288 287 287 287 287 286 284 283 283 282 282 281 280 281 281 280 280 280 281 281 281 281 281 281 282 282 282 282 281 282 282 281 280 280 280 280 280 279 279 279 279 278 279 279 278 278 278 277 277 277 277 277 276 275 275 274 274 273 273 273 274 274 274 275 277 279 277 277 276 276 277 277 277 277
Wind_Speed
5 9 7 8 11 9 9 8 6 7 11 11 12 11 11 11 12 12 13 14 14 14 14 14 14 15 16 16 16 17 17 17 18 18 18 18 18 17 17 16 16 16 16 15 15 15 14 14 14 14 14 14 14 14 15 16 16 15 16 16 15 15 16 16 16 17 17 18 19 19 19 19 19 19 19 20 20 20 19 19 16 10 8 10 14
8 5 4 5 8 9 10 9 9 9 11 12 11 11 11 11 11 11 12 12 14 14 14 13 14 14 15 15 16 16 16 17 18 18 17 17 16 16 16 16 16 16 15 15 14 14 14 14 14 14 14 14 14 14 15 16 15 14 16 16 15 14 15 16 17 17 17 17 17 18 18 19 18 18 18 18 18 19 18 18 18 10 7 15 16
7 6 3 8 10 11 11 10 10 10 12 12 11 11 10 9 11 11 11 12 13 14 14 13 13 13 14 15 15 15 16 16 17 17 17 16 16 15 16 16 15 15 15 14 14 14 14 15 14 14 14 14 14 15 15 16 15 14 16 15 15 15 16 16 16 17 16 16 16 17 17 18 19 18 18 18 18 18 17 17 17 16 10 17 16
8 5 3 4 7 7 10 11 11 11 12 12 11 10 10 9 10 12 11 11 12 14 14 13 13 13 13 15 15 15 15 16 16 16 15 15 15 15 15 15 15 15 15 15 15 15 15 15 15 15 14 15 15 15 15 16 15 15 17 15 15 16 16 17 17 16 16 15 14 11 7 7 11 19 17 17 18 18 17 17 17 18 19 18 17
7 4 3 3 3 5 7 7 10 11 11 11 11 10 10 10 10 11 11 11 12 12 14 14 13 13 13 13 14 14 15 15 15 16 14 14 15 15 15 14 14 14 14 14 14 14 15 15 15 14 14 15 15 15 15 15 15 16 17 15 16 16 16 16 16 16 16 15 13 9 7 7 7 16 17 17 17 17 17 17 16 17 17 19 19
6 4 3 3 2 3 7 8 9 11 11 10 10 10 9 10 10 10 11 11 11 11 12 13 14 12 13 13 13 13 14 14 14 15 15 14 15 15 14 14 14 14 14 13 13 14 14 14 14 14 14 15 15 15 15 15 16 17 16 16 17 17 17 17 15 15 13 13 10 7 7 7 6 8 18 17 17 17 16 17 16 16 16 17 17
7 4 3 3 2 4 8 9 10 11 11 10 9 9 9 9 9 10 10 11 11 11 11 11 12 12 12 12 13 13 13 14 14 14 15 15 15 14 14 13 13 13 13 13 13 14 14 14 14 14 15 15 15 15 15 16 17 18 17 17 18 18 17 15 14 13 12 7 6 6 6 7 6 5 17 16 17 17 18 17 17 16 17 17 19
5 4 3 3 3 4 7 7 8 10 10 10 9 9 8 8 8 9 9 10 10 11 11 11 11 12 12 12 12 13 14 14 14 14 14 14 14 13 13 12 12 12 13 13 14 14 14 14 15 15 15 14 14 15 15 16 18 18 18 18 18 17 16 15 14 13 13 6 5 6 6 6 6 5 16 16 17 18 17 18 18 17 17 18 16
6 4 3 3 3 7 7 7 8 9 10 10 10 9 9 9 8 8 9 9 10 10 10 11 11 11 12 12 12 13 13 14 14 14 14 13 13 13 12 12 12 13 13 14 14 14 14 14 14 15 15 15 14 15 16 16 17 17 18 18 17 15 15 14 13 12 8 5 5 5 6 5 5 5 14 16 18 18 18 15 12 17 17 17 16
5 5 3 3 3 7 7 8 8 9 10 10 9 9 9 8 8 9 9 9 9 10 10 10 11 10 11 11 11 12 13 13 13 13 13 13 13 12 12 12 13 13 14 14 14 14 15 15 15 14 14 15 15 14 15 16 16 17 18 16 16 15 14 12 12 8 6 5 6 6 7 10 4 5 13 16 18 18 18 16 14 14 13 17 17
4 4 3 3 4 7 8 9 9 9 10 9 9 9 9 9 8 9 9 9 9 9 10 10 10 10 10 10 11 12 12 12 12 13 13 13 13 12 11 12 13 13 14 14 14 14 15 15 15 15 15 15 15 15 16 16 16 16 16 16 15 15 14 12 9 6 6 6 6 5 6 11 5 6 14 16 18 17 16 16 16 16 17 18 18
4 4 3 2 4 8 8 8 8 9 9 9 10 9 9 9 8 9 9 9 9 9 10 10 10 10 10 10 11 11 11 11 11 12 13 13 12 12 12 12 13 13 13 13 13 14 15 15 15 14 15 15 15 16 16 16 16 16 16 16 15 14 13 12 7 6 6 6 7 6 5 4 6 11 16 15 17 17 17 17 17 17 18 19 20
3 3 3 2 3 6 8 8 7 7 8 9 10 10 9 9 8 8 8 8 9 8 8 8 8 9 9 10 11 11 11 11 11 12 13 13 12 12 12 12 12 12 13 13 13 13 14 14 14 14 14 15 15 16 16 15 15 15 15 15 14 13 12 11 6 6 6 6 6 7 6 5 6 16 14 15 16 17 17 16 16 17 18 19 20
3 4 3 2 2 4 6 8 6 6 7 7 8 8 9 9 9 8 8 7 8 8 8 8 8 9 9 9 10 10 11 11 11 11 12 13 12 12 11 11 11 12 12 12 12 13 13 14 14 14 14 14 15 16 16 15 15 15 14 14 13 12 11 8 7 6 6 6 6 7 6 5 6 15 14 15 16 16 16 16 16 17 17 17 18
4 4 3 3 2 2 4 4 6 7 7 6 6 6 8 8 8 8 8 7 8 8 8 8 8 9 9 10 10 10 10 10 10 11 12 12 12 12 11 10 11 11 12 12 12 13 13 14 14 14 14 14 15 15 15 15 15 15 14 14 13 12 10 6 6 6 6 6 6 7 7 4 13 14 13 15 15 15 14 15 15 16 16 16 16
5 4 4 4 3 2 0 0 4 4 4 5 6 5 6 6 7 7 7 8 9 9 8 9 9 9 9 8 10 10 10 10 10 11 12 12 12 11 10 10 11 11 11 12 12 13 14 14 14 14 14 14 14 15 15 15 15 15 15 15 14 14 13 7 6 7 6 7 7 6 6 5 15 14 14 15 15 14 13 14 14 14 14 15 14
8 6 6 6 5 4 1 3 2 5 5 6 5 4 4 5 5 6 5 6 7 8 9 9 9 10 10 9 8 9 8 10 10 11 11 11 12 11 10 11 11 11 11 12 13 13 14 14 14 14 14 14 14 15 16 16 15 15 15 15 14 14 13 9 7 6 6 7 6 7 6 3 11 15 15 15 14 14 14 14 14 15 13 13 13
7 7 6 6 5 6 6 6 4 3 4 4 6 6 5 3 4 4 5 5 7 7 7 7 8 9 10 8 8 9 9 9 9 9 11 12 10 8 9 11 11 11 12 12 13 13 14 14 14 14 14 14 15 16 16 16 16 15 14 14 13 13 12 10 7 6 7 7 7 7 7 5 11 13 14 14 14 13 13 13 14 14 13 13 12
8 9 5 9 8 8 7 5 4 2 2 2 2 5 6 2 5 4 3 5 6 7 6 6 6 7 8 9 9 10 9 10 9 9 10 10 9 8 9 10 11 11 11 12 13 13 14 14 14 14 14 14 15 15 16 15 15 14 13 12 12 10 12 8 7 7 8 7 7 8 8 17 14 15 15 15 13 13 12 11 12 13 13 12 11
6 8 7 8 6 6 6 4 5 6 4 2 3 3 5 7 7 6 4 4 4 5 7 6 6 7 7 8 8 7 7 7 9 8 10 10 8 7 8 8 11 10 10 11 12 12 13 14 14 14 13 14 14 14 14 14 13 13 12 11 10 11 9 7 7 8 8 7 7 7 13 18 17 16 15 14 15 15 15 14 11 10 12 13 12
5 6 6 5 5 4 6 6 6 6 6 2 2 2 3 4 5 8 5 1 5 5 6 8 8 7 6 6 7 5 4 4 5 5 8 7 8 8 7 8 10 10 10 10 11 11 12 12 13 13 13 12 11 13 13 13 13 12 11 10 10 8 7 7 8 7 7 7 8 8 17 17 17 16 14 15 17 18 17 18 17 13 11 12 12
5 6 5 5 3 5 4 5 4 5 5 3 1 2 2 3 3 3 4 2 3 4 5 5 4 4 5 4 3 4 4 3 3 5 5 6 7 9 7 8 9 8 8 9 10 10 10 11 11 12 13 12 11 7 7 10 12 12 10 10 8 6 7 7 7 7 8 8 8 11 18 18 18 19 18 18 18 18 18 18 18 18 17 18 16
3 5 5 5 5 3 4 5 4 4 6 3 3 1 3 3 2 3 2 5 3 3 5 4 3 4 3 3 2 2 3 3 3 4 6 8 8 9 8 8 8 7 7 8 9 9 10 10 10 10 11 10 7 6 6 6 7 9 8 7 6 7 7 7 7 7 8 7 7 15 18 19 19 19 20 20 19 18 16 19 20 20 19 17 16
1 2 4 4 3 4 4 2 4 4 4 4 3 3 3 3 3 4 3 3 3 2 3 4 3 3 4 3 3 2 3 3 3 6 6 5 4 8 9 9 8 7 8 6 9 9 10 10 11 9 6 5 6 6 6 6 6 6 6 6 6 6 7 7 7 7 8 8 8 17 18 19 19 19 19 19 19 19 19 20 21 21 22 22 21
1 3 3 4 5 5 4 5 4 3 3 3 3 2 1 4 3 4 3 4 3 3 3 3 3 3 4 3 3 3 3 3 4 4 4 5 5 5 5 5 5 5 6 5 5 6 6 5 6 6 5 5 6 6 6 6 6 6 6 6 7 7 7 7 7 8 8 8 10 17 18 19 19 19 19 19 19 19 18 19 19 19 20 20 21
1 1 3 4 4 5 5 3 3 3 1 2 3 3 2 3 5 4 3 3 4 3 3 4 4 3 3 3 4 4 3 3 3 1 5 6 5 5 5 4 3 4 4 5 4 5 5 5 5 6 6 5 5 6 5 6 6 6 6 7 7 7 7 8 8 8 8 8 11 18 18 19 20 20 20 20 20 20 20 19 19 19 19 18 18
1 1 2 3 4 4 4 4 4 2 3 3 2 1 0 1 6 5 4 3 3 3 3 3 3 3 4 3 4 4 3 3 3 4 1 3 4 2 3 2 3 2 2 5 4 3 4 5 5 5 5 6 6 5 6 6 5 6 7 7 7 8 8 8 8 8 8 8 12 21 19 20 22 22 21 21 20 20 19 19 19 19 19 19 19
0 1 3 3 4 4 4 3 4 2 3 3 1 3 2 4 6 5 4 5 5 5 4 4 3 5 4 3 3 4 4 4 4 4 4 6 5 5 4 4 4 4 3 2 3 3 5 5 5 5 6 6 6 5 6 6 7 6 7 8 8 8 8 8 8 8 8 9 10 18 19 21 21 21 22 22 21 21 20 19 20 20 19 20 19
1 2 3 3 3 3 3 4 3 2 2 2 2 3 4 6 7 5 6 2 7 5 4 6 5 4 6 4 4 4 4 5 5 5 6 6 6 5 5 4 5 4 4 4 3 4 5 6 6 5 5 6 6 6 6 6 7 6 8 8 8 8 8 8 8 9 8 8 10 15 21 22 22 22 22 23 22 22 21 21 20 21 21 20 19
2 2 2 2 3 4 3 3 3 3 4 5 2 5 5 7 6 6 5 2 7 7 3 7 5 5 5 5 6 5 4 5 6 5 7 7 6 5 6 5 6 4 5 5 4 5 5 6 6 5 6 6 6 5 6 6 7 7 7 9 8 7 8 8 9 8 8 8 9 12 21 21 22 23 23 23 23 23 23 22 22 21 20 21 20
1 2 2 3 3 4 2 2 2 3 5 6 4 6 5 6 6 6 5 3 6 8 6 6 5 5 5 6 7 6 5 4 6 6 6 7 6 6 6 5 6 5 5 6 5 6 6 7 7 6 5 5 6 5 6 7 7 7 7 8 7 7 8 8 9 8 9 8 8 8 11 19 22 23 23 23 23 23 23 23 23 23 23 23 22
2 2 3 3 3 2 2 2 1 4 8 7 6 7 7 7 6 5 6 4 5 6 6 6 7 4 4 7 6 6 5 5 6 5 7 7 6 7 6 6 5 5 5 6 7 6 7 7 8 6 4 5 6 6 5 7 7 6 8 9 8 8 8 8 9 9 9 8 8 8 8 10 17 21 22 24 24 24 24 24 24 24 24 23 24
3 2 3 1 1 2 1 2 3 5 9 8 6 6 8 7 6 6 6 2 6 7 7 5 7 5 5 6 6 6 5 5 6 6 7 7 7 7 7 6 6 5 6 7 7 6 7 7 8 6 5 5 6 6 6 7 8 7 9 8 7 9 8 8 8 9 9 8 8 7 8 8 9 14 19 21 23 24 24 24 24 24 24 24 24
3 2 2 1 1 1 1 3 4 6 9 7 6 6 7 5 6 4 5 3 5 7 7 5 7 4 6 6 7 7 6 6 6 7 7 7 7 7 7 7 5 5 6 6 7 5 6 7 5 6 6 7 7 5 7 9 7 8 9 7 8 8 8 9 8 8 8 8 7 8 8 8 8 8 8 15 20 22 23 24 24 24 24 24 24
2 2 2 2 2 2 2 4 5 6 8 7 7 6 8 5 7 4 5 6 3 7 7 7 7 5 6 6 7 7 8 7 6 7 7 7 8 7 7 6 5 5 7 7 7 7 7 7 5 7 6 6 7 7 8 8 8 9 7 7 8 8 8 9 8 8 9 7 8 8 8 8 8 8 8 8 11 18 21 23 24 24 24 24 24
3 2 2 3 3 3 3 5 5 5 7 7 7 5 10 5 7 4 7 4 4 7 5 9 6 5 7 6 7 8 8 7 7 7 8 7 7 7 6 5 8 6 6 7 7 7 6 7 6 5 8 7 7 7 6 8 8 9 7 8 8 8 8 7 7 8 6 7 8 8 8 8 8 8 8 8 8 10 20 20 22 24 24 24 24
3 3 3 4 4 4 4 5 6 7 7 7 8 6 10 6 7 5 6 6 8 6 7 8 6 5 7 6 6 7 8 8 7 7 8 7 7 7 6 6 6 7 8 6 7 5 5 7 7 6 4 7 9 9 8 8 8 9 9 9 8 8 8 7 7 6 6 9 8 8 8 8 8 8 8 8 8 8 13 20 19 21 22 24 24
3 3 3 6 6 5 4 5 6 7 6 8 6 4 9 6 7 7 6 5 7 7 6 7 7 6 6 7 6 7 8 8 8 7 8 7 7 7 6 6 7 7 8 8 7 6 6 8 9 6 5 7 7 9 9 8 8 8 9 8 7 7 6 7 7 7 8 8 8 8 7 7 8 8 8 8 8 8 8 13 18 18 20 22 23
3 4 4 5 5 6 5 6 6 6 7 8 8 8 9 7 8 8 8 7 6 7 7 7 5 6 6 7 7 7 7 8 8 7 8 7 8 7 7 6 6 8 9 8 8 7 7 6 9 8 8 7 7 6 8 8 9 8 8 7 6 7 6 6 7 8 8 7 7 6 6 8 7 8 8 8 7 8 9 8 8 9 11 21 21
3 4 6 6 6 7 6 6 5 6 6 7 6 7 7 6 7 7 9 6 5 5 7 6 4 5 6 7 7 7 7 7 7 7 8 7 8 7 8 6 7 7 9 9 7 6 7 9 8 9 10 8 8 6 5 9 9 9 7 7 6 6 7 7 8 8 7 7 6 6 7 6 8 8 8 7 8 8 9 9 8 8 8 13 20
4 5 7 6 7 8 8 8 7 6 6 6 4 8 8 7 6 8 8 4 4 5 7 5 6 5 7 6 6 6 7 7 7 7 7 8 7 7 8 7 7 8 8 8 5 6 6 6 6 6 8 9 7 6 4 3 10 7 6 6 7 5 6 8 8 7 7 6 6 7 6 8 8 8 7 6 8 8 8 9 8 8 9 8 10
5 6 8 8 7 8 8 8 7 7 6 4 5 5 3 3 7 7 8 5 4 4 6 5 5 6 6 7 6 6 7 6 6 6 7 7 8 7 8 7 7 8 8 6 6 5 5 5 5 9 6 7 5 5 5 1 4 5 7 3 3 3 3 6 8 6 5 6 6 8 7 8 9 7 7 8 8 8 8 7 7 8 8 8 8
7 6 7 8 8 7 7 8 7 6 5 5 4 5 6 7 6 6 6 7 6 5 5 5 5 6 6 7 7 6 6 6 6 6 7 7 8 8 7 6 7 6 8 8 7 8 6 6 6 9 8 4 6 6 7 3 4 1 2 5 0 0 1 4 3 5 6 5 6 8 7 7 7 6 6 7 7 7 7 7 8 8 8 8 7
6 6 7 8 7 7 7 7 6 5 6 6 7 7 9 10 10 8 7 7 8 5 8 7 7 9 9 8 8 7 7 7 6 6 7 7 7 8 6 7 6 5 7 8 8 7 7 6 5 5 6 7 4 7 7 7 4 3 1 0 1 1 0 2 2 1 3 3 7 6 6 6 6 6 6 7 7 7 7 7 8 7 7 7 7
8 8 7 8 6 8 7 7 7 7 6 9 9 10 11 11 10 10 10 11 8 7 8 8 6 6 7 7 6 6 6 7 6 6 7 8 7 7 7 7 7 6 7 9 8 6 5 5 5 6 6 8 5 3 7 7 8 3 5 3 1 2 0 1 2 1 4 3 5 4 6 8 8 6 6 6 5 6 6 6 6 6 7 7 7
9 8 7 7 7 7 7 7 7 6 8 10 11 9 9 14 12 10 9 7 8 6 7 9 7 6 6 3 6 6 5 6 6 7 7 6 7 7 7 8 8 7 7 7 6 7 7 8 5 5 7 5 8 6 5 5 7 9 7 3 1 2 1 1 2 1 3 1 4 4 6 8 7 8 7 8 9 8 6 7 6 6 6 7 7
9 7 6 6 8 8 8 8 8 7 7 9 9 8 8 6 11 12 13 12 12 3 3 4 6 5 5 7 6 6 5 7 6 6 6 6 7 7 8 8 7 6 5 7 8 7 6 6 5 7 6 4 5 8 7 3 5 8 7 7 9 6 3 2 1 1 2 2 4 5 6 7 6 6 7 6 6 7 7 6 7 6 6 7 8
9 8 7 7 10 9 9 8 8 8 8 9 8 7 9 8 7 8 8 8 11 11 6 6 4 6 7 7 6 6 6 5 6 6 6 6 7 8 7 7 8 6 7 8 8 6 7 6 7 6 6 6 5 8 4 3 6 2 5 7 7 7 7 7 3 1 2 1 4 4 1 8 4 3 4 4 6 6 6 6 6 6 6 7 7
9 10 8 8 8 9 8 8 9 9 8 9 8 6 5 7 10 10 9 5 8 10 7 5 7 5 9 6 7 6 6 5 6 7 6 7 6 7 6 7 8 7 7 7 6 6 7 7 6 8 8 7 6 4 7 4 5 5 4 4 6 6 6 5 3 4 2 0 3 2 6 4 3 1 4 3 4 4 4 4 3 4 5 6 7
8 7 7 8 8 8 10 10 10 8 8 8 6 6 7 8 9 11 15 10 7 8 7 8 7 5 9 7 6 6 6 6 6 6 7 6 6 6 7 9 8 7 7 7 6 7 7 8 7 7 7 9 5 7 7 5 6 4 3 3 4 1 3 4 5 4 3 3 1 3 4 7 10 7 4 8 8 4 3 4 4 4 5 5 6
7 8 9 9 8 10 11 11 11 9 9 8 8 9 8 7 9 13 16 15 11 12 10 8 7 7 9 7 6 6 5 6 6 6 5 5 7 7 8 7 6 5 6 6 6 7 7 8 7 8 8 8 7 7 7 5 5 6 6 6 6 5 3 2 1 3 2 1 3 3 3 2 3 6 5 7 8 5 5 3 4 4 5 6 6
Wind_Direction
171 151 177 166 149 147 151 178 165 139 116 117 110 104 101 97 93 79 78 85 88 91 94 93 90 91 93 91 86 88 87 85 83 80 76 74 71 68 68 66 63 61 59 56 53 53 54 55 54 52 48 43 38 37 43 46 48 50 51 52 59 69 68 61 54 50 48 48 48 46 45 48 46 46 44 41 38 36 35 37 37 30 30 42 48
163 166 170 106 156 158 165 157 153 135 123 114 109 106 102 96 90 86 89 93 90 88 89 91 92 90 91 90 90 92 90 88 87 84 80 76 73 69 66 64 62 60 58 57 56 54 53 53 53 51 49 46 41 35 35 45 48 49 53 58 68 78 73 67 61 55 51 50 48 44 43 46 46 44 44 42 40 38 33 32 34 31 23 40 43
134 156 179 146 181 164 160 160 146 135 117 115 110 108 103 96 100 99 99 95 94 91 91 92 95 96 96 93 94 92 91 89 88 85 83 79 75 72 68 67 63 60 57 55 55 54 52 51 51 50 48 47 45 39 36 39 47 49 53 60 73 73 69 63 59 57 53 51 47 48 42 41 46 46 43 40 40 38 37 32 30 32 34 39 41
142 163 164 155 180 178 156 151 141 125 117 114 116 115 111 106 107 105 103 96 94 97 92 93 95 94 92 96 97 95 94 92 90 88 85 83 80 75 70 66 61 57 54 53 52 52 53 53 52 51 50 48 47 44 41 42 44 48 51 64 76 75 68 63 59 55 52 51 45 39 34 28 36 44 44 41 37 36 35 35 32 28 29 31 37
144 150 168 167 183 155 145 145 133 123 119 120 122 122 118 112 109 112 109 97 93 97 102 98 95 94 94 93 94 96 97 97 95 91 87 82 80 75 70 64 60 56 53 52 53 53 54 56 56 56 54 52 50 47 46 47 46 47 57 74 83 79 73 67 63 60 56 51 45 41 33 31 31 41 42 42 39 34 32 34 35 34 29 27 27
147 149 154 165 146 160 139 140 134 126 123 123 123 122 118 113 109 106 104 100 98 100 98 95 95 95 97 98 98 96 95 94 97 94 88 81 76 73 69 63 59 56 54 54 54 56 57 58 59 60 59 56 53 51 51 50 49 53 62 80 87 82 77 72 67 63 55 49 42 40 35 31 33 38 40 39 40 36 33 32 33 33 35 31 24
146 144 146 154 146 152 146 150 140 131 129 125 123 121 119 115 113 111 110 111 108 104 102 100 96 96 98 100 99 99 97 96 95 92 87 81 75 70 68 65 60 56 55 54 54 56 58 59 60 61 61 59 57 57 57 54 54 58 69 83 86 82 77 73 69 63 56 51 45 39 36 34 31 40 42 40 39 39 35 33 31 30 31 31 26
136 144 152 150 140 152 149 145 137 134 131 128 125 123 120 119 114 116 115 114 112 110 109 108 105 103 102 102 102 98 98 97 95 94 90 84 77 72 68 65 61 57 56 55 54 54 55 57 60 61 62 63 63 63 62 60 58 65 79 83 82 77 74 71 66 64 62 54 51 47 39 33 34 39 46 43 43 41 40 35 31 28 26 26 26
155 150 150 149 152 155 152 139 145 139 137 134 133 132 128 126 122 118 119 117 116 114 113 111 108 106 104 103 103 100 98 99 97 95 93 88 82 74 68 61 57 56 55 55 55 55 54 55 57 60 63 66 67 67 68 67 65 75 84 87 83 77 74 70 67 58 53 41 39 47 49 39 31 45 48 47 45 42 41 39 34 31 27 25 24
152 146 152 153 156 161 152 154 155 148 141 140 138 136 132 127 128 128 123 121 117 118 119 115 110 108 107 107 104 105 104 102 102 100 98 90 83 75 67 61 55 53 55 55 57 57 56 55 55 58 61 65 66 66 66 69 74 81 89 86 82 77 71 65 58 49 48 40 36 25 56 58 42 47 50 48 46 43 40 38 39 37 37 34 30
149 148 147 158 165 165 164 156 158 158 149 145 146 140 133 133 132 132 128 126 125 122 120 118 113 110 108 108 105 106 105 104 105 104 99 92 85 78 68 62 59 56 55 58 59 59 59 57 57 59 62 65 64 63 63 70 78 80 82 81 75 70 67 62 58 49 45 43 40 36 32 49 45 50 50 48 48 48 46 43 40 38 38 36 35
148 134 140 154 176 170 163 157 160 160 153 153 149 143 138 137 139 138 135 132 131 131 127 121 118 112 110 109 107 108 108 106 107 105 99 93 88 80 70 64 60 60 60 62 63 65 64 62 61 63 66 67 65 61 63 70 76 77 76 73 71 68 64 61 59 51 43 38 37 33 38 32 50 51 49 48 48 47 46 44 42 40 38 36 32
133 119 115 134 168 194 160 159 161 160 157 159 152 145 141 141 139 138 137 135 133 133 129 122 118 117 113 111 112 113 114 114 112 110 105 96 89 79 72 66 62 62 63 64 67 69 70 69 68 68 69 68 65 62 65 71 74 75 74 72 71 68 64 58 56 51 44 37 35 31 30 33 49 53 49 48 48 47 46 46 45 42 40 37 34
116 111 107 122 157 204 171 156 161 160 161 163 148 149 143 144 141 140 138 135 132 128 130 128 125 121 116 115 117 119 121 121 118 114 108 102 93 84 78 72 67 66 66 67 69 69 71 73 74 73 70 67 64 64 66 69 70 69 69 68 65 63 58 52 48 49 45 35 31 30 28 30 51 51 49 49 49 49 48 47 44 47 44 41 38
104 93 98 76 111 131 163 166 161 168 164 149 147 144 146 149 144 144 147 137 136 138 139 137 133 126 127 125 125 127 128 126 123 117 113 108 102 96 88 81 74 71 70 71 72 72 71 71 72 72 71 68 66 66 66 67 66 63 60 56 51 49 48 50 40 38 35 30 23 26 22 20 50 50 49 50 50 51 47 52 44 41 47 46 44
55 66 75 56 80 75 330 273 164 172 162 141 141 146 152 144 137 148 152 143 144 147 145 143 138 133 129 129 133 134 134 130 126 124 119 115 108 101 96 90 83 76 74 74 75 75 74 73 72 71 71 70 69 68 67 66 64 60 56 52 47 42 36 35 37 28 23 23 17 17 12 29 50 52 46 47 48 52 47 48 49 43 41 42 41
36 32 58 40 40 25 73 198 209 150 154 174 142 143 125 131 129 128 139 145 140 151 152 151 151 142 132 137 140 133 129 131 130 128 127 119 111 106 101 94 89 81 77 75 73 74 76 77 74 71 69 68 67 66 65 64 60 58 55 52 49 46 41 38 41 25 24 20 18 10 360 16 55 54 50 49 45 48 45 45 41 37 40 43 33
38 44 46 50 29 18 21 329 171 183 156 165 145 152 158 146 99 106 120 135 145 152 157 157 153 140 141 138 127 126 132 135 134 133 131 120 112 110 106 104 97 92 85 80 78 75 76 76 74 70 68 66 66 66 67 67 66 64 60 56 52 48 44 46 42 28 25 22 14 5 3 359 47 48 46 48 50 42 44 38 36 39 35 43 38
31 33 0 45 22 15 11 336 339 114 143 138 151 174 148 185 154 133 109 138 155 153 155 151 142 135 131 129 129 131 137 140 138 127 124 120 121 118 113 108 105 100 94 88 83 79 78 77 73 67 63 66 68 69 69 69 71 69 67 62 55 49 48 46 40 33 27 23 11 10 2 11 45 37 35 42 53 51 40 40 31 31 36 36 35
28 17 351 38 26 6 354 348 359 25 342 149 174 153 170 187 151 153 92 66 88 153 143 138 123 110 115 123 123 127 132 136 130 119 130 132 125 123 118 110 111 108 100 91 85 82 80 78 74 68 62 59 61 63 67 71 72 72 69 63 55 52 48 45 45 42 33 23 19 7 17 21 28 33 27 30 35 35 32 28 28 35 30 35 33
13 23 14 12 13 2 340 8 356 10 344 317 149 132 190 156 155 155 160 348 70 101 124 115 117 113 125 130 128 126 114 114 122 123 129 131 136 130 125 121 115 111 103 95 87 82 79 76 74 71 65 58 49 49 50 61 65 66 62 59 57 54 49 50 47 43 37 28 22 15 28 27 26 31 29 23 25 22 22 27 25 32 30 27 30
351 342 3 359 351 1 341 3 338 348 341 300 68 158 149 196 168 161 161 220 111 113 121 122 118 107 107 122 122 134 108 106 98 130 132 138 143 140 129 117 113 105 106 103 96 88 80 73 71 75 72 61 53 48 42 45 50 55 53 54 57 55 51 54 51 44 39 27 22 26 36 36 33 36 36 33 28 22 16 21 26 25 28 23 15
360 355 336 354 344 320 351 356 325 343 323 330 25 218 181 188 148 155 169 160 125 142 131 129 122 124 134 137 103 108 125 125 125 146 149 155 153 146 130 116 114 110 106 99 94 86 78 73 70 77 78 71 63 59 56 51 45 44 47 49 52 51 53 52 53 48 40 33 27 30 39 41 39 40 40 39 36 32 27 24 25 24 25 29 27
307 304 312 313 338 332 331 319 315 329 306 7 350 305 186 187 159 180 164 142 134 116 100 115 125 141 148 151 155 136 112 122 128 133 132 136 154 142 130 122 118 107 95 83 75 71 68 72 73 62 52 67 72 65 63 55 53 50 52 51 52 45 49 49 49 46 39 31 30 33 38 43 43 42 41 39 38 36 34 32 30 29 29 26 25
262 300 327 328 328 328 326 318 328 321 340 355 328 323 292 178 144 148 134 137 118 130 131 123 136 146 144 152 140 125 150 129 133 151 143 146 150 144 132 132 130 124 112 93 93 88 82 75 70 64 51 44 67 60 63 57 48 47 50 49 52 46 48 44 46 44 36 30 31 34 38 42 42 41 41 41 41 39 35 33 31 30 29 29 28
305 18 316 319 321 318 304 298 303 308 332 309 293 288 294 213 152 142 140 133 151 146 147 147 147 144 133 149 142 132 131 125 116 103 147 166 154 151 145 143 129 118 104 100 98 98 98 94 85 80 64 53 52 69 64 65 60 52 50 48 51 51 49 47 48 51 40 35 35 37 40 42 43 44 43 43 42 40 36 33 35 33 30 30 31
348 322 307 312 306 307 305 308 302 316 318 276 281 22 337 258 153 143 137 129 130 114 109 112 131 120 117 124 134 121 116 114 123 111 89 82 60 84 92 75 85 74 94 115 95 86 94 95 89 80 78 67 50 50 62 62 55 61 55 53 54 57 55 53 52 51 46 42 38 40 44 44 44 44 43 42 41 38 36 33 32 33 33 32 31
39 327 303 291 292 294 293 299 300 314 278 267 26 78 79 65 70 78 77 108 87 82 86 67 51 82 66 58 85 108 116 106 99 94 75 65 70 59 66 72 65 63 30 48 98 83 72 64 60 57 63 63 63 50 53 53 58 56 66 59 61 59 58 57 57 52 49 44 41 37 39 42 42 41 41 41 39 38 37 34 33 32 31 30 30
222 257 277 288 289 303 308 308 304 266 227 131 82 91 88 79 68 54 77 347 97 65 68 79 52 64 64 59 69 94 91 94 85 84 80 69 64 67 71 54 63 44 49 42 59 76 79 72 64 62 65 64 60 51 55 50 56 55 70 70 66 64 65 62 59 55 51 49 44 39 39 40 41 41 41 40 39 37 36 34 33 32 31 29 29
227 260 283 295 296 291 291 294 290 212 147 101 74 88 74 82 73 65 53 357 90 90 58 74 65 60 75 74 69 72 82 108 114 108 103 93 80 74 78 78 69 69 83 73 63 78 80 79 74 67 72 70 67 54 63 59 56 57 67 77 68 68 74 71 64 58 57 51 48 44 39 41 40 41 40 40 39 38 36 36 34 32 31 30 29
243 260 286 274 288 301 297 302 259 168 109 94 84 96 88 86 88 76 63 53 85 98 80 83 71 69 86 87 89 90 96 95 99 108 98 93 84 75 67 68 66 57 75 83 68 81 80 73 73 64 67 75 73 59 65 65 62 66 72 76 75 72 69 69 69 62 57 52 50 44 33 36 39 38 38 39 38 38 37 36 36 35 34 32 30
237 243 274 295 299 304 322 319 83 110 104 98 100 103 96 96 90 88 79 62 76 89 90 89 68 49 83 98 94 96 102 96 100 96 95 94 88 79 69 67 65 56 60 73 73 70 80 82 76 77 75 78 76 63 57 74 69 76 80 73 71 72 68 65 66 62 59 54 48 42 39 33 32 36 35 34 36 36 36 36 34 34 34 32 31
242 235 263 284 296 339 349 25 83 104 104 104 100 107 100 102 88 94 89 44 92 77 74 70 84 46 34 73 76 78 66 84 81 83 87 89 89 88 77 68 65 67 72 73 76 75 79 77 73 76 66 67 67 65 67 68 78 72 75 72 73 70 71 69 65 62 58 53 47 42 41 35 32 30 30 32 30 33 34 34 33 32 32 31 30
207 246 223 124 337 356 26 62 80 96 101 103 102 100 93 90 79 71 94 90 74 86 80 62 74 62 59 49 67 62 66 63 76 79 80 82 79 78 84 74 66 66 72 68 67 56 72 73 73 73 63 66 69 62 82 79 72 71 74 76 71 70 70 70 63 63 59 54 46 46 38 36 33 31 25 27 28 28 31 33 32 31 30 30 29
233 236 171 132 54 55 52 79 86 87 97 97 95 95 93 66 86 66 78 60 103 94 80 73 64 66 73 67 64 68 66 68 66 80 77 85 84 81 74 78 80 75 78 72 77 60 63 66 58 79 73 70 70 66 80 84 83 76 74 78 75 72 65 68 64 64 57 52 49 44 40 35 29 30 26 25 20 22 26 28 31 29 28 28 29
206 196 159 119 86 73 66 91 82 80 78 95 90 90 84 64 79 68 78 70 89 82 97 81 65 72 76 70 72 73 73 70 74 79 86 82 89 84 78 82 79 69 68 67 71 69 70 71 44 56 94 68 82 70 73 87 81 82 76 73 75 71 69 63 63 62 57 55 48 43 39 35 31 29 27 24 22 18 22 25 27 26 25 26 27
189 175 162 125 101 87 76 84 91 96 94 84 88 94 87 70 82 61 72 73 69 75 85 88 79 64 79 70 69 79 77 76 77 81 92 90 90 88 78 77 81 84 76 72 68 64 74 82 58 42 66 101 89 91 80 83 85 81 78 73 70 76 71 65 59 62 57 55 49 43 39 33 31 30 26 23 22 17 16 23 24 24 21 23 25
193 177 165 138 126 115 97 95 96 93 98 97 82 95 89 90 76 67 62 62 73 63 67 82 78 72 70 79 72 80 80 80 78 84 88 88 88 90 86 78 84 85 86 76 72 68 66 78 82 52 59 94 91 95 94 89 86 84 76 74 71 70 68 63 59 55 53 50 46 42 35 33 33 28 25 24 22 20 21 17 20 21 19 20 23
178 169 142 126 120 113 113 102 100 106 104 101 105 89 81 87 82 82 69 52 47 64 64 48 70 73 72 77 77 81 81 81 86 89 97 96 91 89 87 80 87 88 81 77 71 66 72 73 93 88 67 63 86 82 98 97 90 83 80 70 71 67 67 64 60 57 51 49 46 38 38 31 31 26 24 24 19 23 22 21 20 18 14 18 22
176 157 137 134 128 124 122 115 110 110 106 112 126 99 94 86 100 95 74 49 47 52 48 47 41 58 62 69 74 80 81 87 90 90 92 94 95 90 87 76 77 85 86 81 73 70 82 86 72 92 90 71 53 53 64 94 83 80 81 68 60 69 66 66 62 56 52 46 42 40 38 25 32 23 24 17 23 22 23 22 23 19 18 15 21
172 158 146 147 148 145 139 135 135 130 129 136 132 127 129 114 79 91 96 42 54 65 65 45 51 52 62 65 69 77 82 87 86 94 96 96 89 88 87 76 76 80 82 83 82 80 69 80 90 57 81 85 46 12 10 42 105 75 62 66 56 37 65 69 63 56 51 43 40 45 30 32 24 24 14 17 24 22 23 21 20 21 19 19 15
177 166 159 159 155 152 145 141 143 145 143 137 126 100 81 97 123 121 114 94 75 54 73 46 56 59 56 62 67 68 75 79 84 91 93 95 99 88 82 82 80 80 82 83 75 67 62 59 88 75 35 78 57 9 342 52 40 127 123 90 39 11 52 64 65 48 48 43 43 44 33 32 22 14 8 19 21 20 21 19 21 22 22 23 20
171 173 163 156 158 156 150 147 151 147 134 117 104 103 97 92 103 108 109 104 58 59 69 66 47 58 48 34 47 59 73 71 70 75 87 82 86 89 82 79 73 90 94 75 70 64 56 63 61 107 98 61 85 31 17 24 140 112 106 91 51 87 302 11 21 46 33 38 41 45 34 30 19 13 10 22 18 14 15 16 22 22 23 24 22
172 172 169 165 162 160 155 148 135 124 117 102 101 94 95 93 84 88 80 82 111 91 78 66 70 66 50 29 40 36 59 69 62 69 76 74 79 85 84 76 72 63 86 87 71 64 56 50 61 62 105 82 43 37 22 28 81 118 89 75 183 115 17 340 5 303 2 28 47 43 34 27 15 7 18 29 11 11 13 13 21 19 21 23 25
179 176 173 169 164 162 153 135 130 128 119 120 116 120 113 98 96 88 91 94 76 85 90 70 61 76 77 54 47 46 58 68 67 70 81 84 80 84 88 85 81 66 76 82 76 74 66 65 60 71 53 116 89 97 35 33 49 23 147 109 36 35 202 249 32 294 356 6 5 29 37 25 12 9 14 14 19 23 13 15 18 19 21 23 23
181 178 172 165 151 149 140 128 118 122 130 130 136 140 139 135 131 126 118 112 110 115 118 128 118 90 88 85 60 50 62 73 71 76 78 86 88 88 90 88 80 74 73 85 90 76 59 61 40 77 75 46 118 94 70 36 57 45 50 83 124 153 179 258 88 299 326 85 331 20 38 21 5 6 10 11 9 359 11 8 15 20 22 26 22
180 162 160 153 147 143 142 138 137 134 130 136 143 141 138 143 140 142 141 142 128 70 60 58 103 96 89 82 77 59 54 78 70 75 83 88 90 84 83 84 85 83 84 86 76 73 68 59 47 62 56 63 76 94 94 55 34 38 36 56 61 53 85 112 98 96 3 320 22 6 354 9 1 1 3 7 359 0 355 5 5 15 21 25 23
163 155 155 153 149 146 141 140 137 142 147 150 154 157 147 146 125 115 119 130 133 133 126 109 91 108 97 89 85 71 62 67 88 80 80 81 86 83 86 87 87 80 81 77 83 82 84 67 69 76 71 58 74 110 102 20 102 26 19 51 54 47 46 57 79 129 144 278 308 336 337 342 347 337 345 353 1 355 352 356 4 12 23 23 25
163 165 160 156 146 140 137 135 139 143 154 159 158 160 154 149 138 128 108 77 111 119 119 113 113 116 102 93 90 88 81 71 71 81 73 79 82 95 95 92 87 80 80 82 76 76 81 87 77 70 73 63 60 80 94 72 85 132 118 66 61 71 62 67 44 59 109 120 291 355 323 316 300 274 340 338 352 6 1 348 6 26 30 26 24
161 149 145 146 147 144 144 146 148 150 160 158 155 143 145 146 138 134 125 126 121 116 122 127 124 127 108 108 105 99 95 84 71 72 81 78 89 90 88 86 86 87 86 95 98 87 81 77 73 79 81 81 67 75 86 88 78 68 71 128 88 46 41 33 33 38 34 75 120 314 337 350 350 322 346 350 350 11 9 354 18 33 36 39 25
154 153 150 153 154 152 152 156 157 155 161 161 155 152 152 156 145 142 136 138 145 140 135 134 135 128 121 122 117 108 96 94 91 79 79 90 85 79 86 87 89 93 97 92 85 86 80 82 80 77 71 82 79 85 83 75 88 73 60 67 74 78 123 115 103 30 97 61 23 336 316 309 266 305 310 336 329 336 350 13 61 41 48 30 23